User: anonymous   Login
Location: Unspecified
(0.0000°N, 0.0000°E)
Time: 06:14:40
(UTC+00:00)
Language:

COBE - Orbit

View from above orbital plane
View from above orbital plane
View from above satellite
View from above satellite

Ground track
Ground track

The orbit data is extracted from the following two-line orbital elements,

1 20322U 89089A   18324.51167958  .00000168  00000-0  13218-3 0  9996
2 20322  98.9300 337.9402 0007761 248.3533 264.7156 14.04834090486559
Epoch (UTC): 20 November 2018 12:16:49
Eccentricity: 0.0007761
inclination: 98.9300°
perigee height: 871 km
apogee height: 883 km
right ascension of ascending node: 337.9402°
argument of perigee: 248.3533°
revolutions per day: 14.04834090
mean anomaly at epoch: 264.7156°
orbit number at epoch: 48655

The dashed part of the orbit path shows where the satellite is in the earth's shadow,  

DLR